Weather History for KIAG - October, 2013

Change the Weather History Date:

Sunday, October 27, 2013

  Actual Average Record
Temperature  
Mean Temperature 40 °F -  
Max Temperature 48 °F 53 °F 72 °F (1989)
Min Temperature 34 °F 37 °F 25 °F (1990)
Degree Days  
Heating Degree Days 25    
Moisture  
Dew Point 34 °F    
Average Humidity 75    
Maximum Humidity 93    
Minimum Humidity 62    
Precipitation  
Precipitation 0.00 in - - ()
Sea Level Pressure  
Sea Level Pressure 29.99 in    
Wind  
Wind Speed 11 mph (West)    
Max Wind Speed 17 mph    
Max Gust Speed -    
Visibility 10 miles    
Events Rain    
Averages and records for this station are not official NWS values.
T = Trace of Precipitation, MM = Missing Value Source: NWS Daily Summary

Daily Weather History Graph

Daily Weather History Graph

Search for Another Location

Airport or City:

Trip Planner

Search our weather history database for the weather conditions in past years. The results will help you decide how hot, cold, wet, or windy it might be!

Date:

Astronomy

Oct. 27, 2013 Rise Set
Actual Time 7:44 AM EDT 6:14 PM EDT
Civil Twilight 7:15 AM EDT 6:43 PM EDT
Nautical Twilight 6:41 AM EDT 7:16 PM EDT
Astronomical Twilight 6:08 AM EDT 7:49 PM EDT
Moon 12:29 AM EDT (10/27) 2:32 PM EDT (10/27)
Length of Visible Light 11h 28m
Length of Day
10h 29m
Last Quarter, 44% of the Moon is Illuminated
Oct 27
Last Quarter
Nov 3
New
Nov 10
First Quarter
Nov 17
Full
Nov 25
Last Quarter

Hourly Weather History & Observations

Time (EDT) Temp. Windchill Dew Point Humidity Pressure Visibility Wind Dir Wind Speed Gust Speed Precip Events Conditions
12:53 AM 41.0 °F - 36.0 °F 82% 29.86 in 10.0 mi North - - N/A   Overcast
1:53 AM 39.0 °F - 34.0 °F 82% 29.88 in 10.0 mi North - - N/A   Clear
2:53 AM 37.9 °F - 34.0 °F 86% 29.90 in 10.0 mi North - - N/A   Partly Cloudy
3:53 AM 37.0 °F - 33.1 °F 86% 29.91 in 10.0 mi North - - N/A   Partly Cloudy
4:53 AM 36.0 °F - 33.1 °F 89% 29.91 in 10.0 mi North - - N/A   Mostly Cloudy
5:53 AM 37.0 °F - 34.0 °F 89% 29.93 in 10.0 mi North - - N/A   Scattered Clouds
6:53 AM 37.0 °F - 33.1 °F 86% 29.95 in 10.0 mi North - - N/A   Partly Cloudy
7:02 AM 35.6 °F 29.2 °F 33.8 °F 93% 29.92 in 10.0 mi West 8.1 mph - N/A   Mostly Cloudy
7:53 AM 34.0 °F 26.6 °F 32.0 °F 92% 29.97 in 10.0 mi West 9.2 mph - N/A   Mostly Cloudy
8:53 AM 37.9 °F 32.1 °F 35.1 °F 89% 29.99 in 10.0 mi West 8.1 mph - N/A   Mostly Cloudy
9:53 AM 39.9 °F 33.9 °F 35.1 °F 83% 30.01 in 10.0 mi West 9.2 mph - N/A   Mostly Cloudy
10:53 AM 43.0 °F 35.7 °F 36.0 °F 76% 30.01 in 10.0 mi West 15.0 mph - N/A   Mostly Cloudy
11:53 AM 46.0 °F 39.6 °F 36.0 °F 68% 30.02 in 10.0 mi West 15.0 mph - N/A   Mostly Cloudy
12:24 PM 44.6 °F 37.8 °F 35.6 °F 71% 29.99 in 10.0 mi WSW 15.0 mph - 0.00 in Rain Light Rain
12:41 PM 44.6 °F 38.1 °F 35.6 °F 71% 29.99 in 10.0 mi WNW 13.8 mph - 0.00 in   Mostly Cloudy
12:53 PM 45.0 °F 37.9 °F 34.0 °F 65% 30.02 in 10.0 mi West 16.1 mph - 0.00 in   Mostly Cloudy
1:53 PM 44.1 °F 37.1 °F 33.1 °F 65% 30.01 in 10.0 mi WNW 15.0 mph - N/A   Mostly Cloudy
1:55 PM 44.6 °F 37.2 °F 33.8 °F 66% 29.98 in 10.0 mi NW 17.3 mph - 0.00 in Rain Light Rain
2:19 PM 46.4 °F 40.7 °F 33.8 °F 62% 29.98 in 10.0 mi WNW 12.7 mph - 0.00 in   Overcast
2:53 PM 44.1 °F 37.7 °F 34.0 °F 68% 30.01 in 10.0 mi WNW 12.7 mph - 0.00 in   Mostly Cloudy
3:49 PM 44.6 °F 40.2 °F 33.8 °F 66% 29.99 in 10.0 mi West 8.1 mph - 0.00 in Rain Light Rain
3:53 PM 45.0 °F 40.6 °F 34.0 °F 65% 30.02 in 10.0 mi West 8.1 mph - 0.00 in Rain Light Rain
4:06 PM 44.6 °F 39.7 °F 33.8 °F 66% 29.99 in 10.0 mi West 9.2 mph - 0.00 in   Mostly Cloudy
4:53 PM 45.0 °F 40.6 °F 34.0 °F 65% 30.03 in 10.0 mi West 8.1 mph - 0.00 in   Mostly Cloudy
5:53 PM 44.1 °F 39.5 °F 32.0 °F 63% 30.04 in 10.0 mi WSW 8.1 mph - N/A   Mostly Cloudy
6:53 PM 41.0 °F 35.2 °F 30.0 °F 65% 30.06 in 10.0 mi WSW 9.2 mph - N/A   Mostly Cloudy
7:53 PM 37.9 °F 31.5 °F 28.9 °F 70% 30.07 in 10.0 mi WSW 9.2 mph - N/A   Mostly Cloudy
8:53 PM 42.1 °F 37.1 °F 30.9 °F 65% 30.06 in 10.0 mi SSW 8.1 mph - N/A   Mostly Cloudy
9:53 PM 41.0 °F 37.1 °F 32.0 °F 70% 30.06 in 10.0 mi South 5.8 mph - N/A   Mostly Cloudy
10:53 PM 41.0 °F 37.1 °F 33.1 °F 73% 30.06 in 10.0 mi South 5.8 mph - N/A   Overcast
11:53 PM 41.0 °F - 33.1 °F 73% 30.05 in 10.0 mi North - - N/A   Overcast